Theta_e
313 312 312 313 312 312 312 312 313 312 313 314 315 317 320 320 325 323 319 318 314 313 313 311 311 311 306 297 296 307 312 313 313 310 303 300 298 297 293 294 296 295 297 299 300 302 303
312 312 312 312 312 312 312 312 311 312 312 312 313 313 318 319 325 321 318 316 313 311 312 310 310 311 302 292 303 308 308 310 308 307 303 302 298 300 296 295 293 297 297 298 299 300 302
312 311 312 312 312 311 311 311 311 310 311 312 312 312 315 317 323 319 316 314 312 311 310 310 310 307 299 297 303 307 305 306 307 306 301 304 303 299 297 293 297 296 292 295 297 298 300
312 311 311 311 311 311 311 310 309 310 309 311 311 311 312 315 320 316 315 314 312 311 309 309 311 304 295 303 307 306 306 305 307 307 305 306 305 301 297 298 295 292 290 287 295 297 299
311 311 311 311 311 311 312 311 310 310 310 310 310 310 311 313 317 314 314 312 311 310 310 311 305 301 292 304 301 305 306 302 304 305 306 306 303 298 296 290 287 289 285 287 290 297 297
311 309 310 310 310 311 311 311 310 310 309 309 310 310 310 312 315 313 312 310 310 310 309 308 303 295 297 293 300 303 306 305 300 301 299 299 297 292 291 288 281 285 285 287 288 294 296
309 310 309 309 310 311 311 310 310 310 309 309 310 309 309 311 313 312 308 305 296 295 301 295 294 292 295 300 305 301 305 302 301 297 290 295 289 285 289 290 291 287 287 287 289 293 296
309 309 308 309 309 310 310 310 309 309 309 309 309 308 308 310 313 311 304 298 297 299 292 298 297 296 299 300 294 299 304 296 294 289 292 290 286 291 293 293 290 288 287 289 293 297 297
308 308 308 308 309 309 309 309 309 309 309 309 309 309 308 309 311 307 301 299 305 303 293 293 296 295 297 299 295 296 300 297 292 289 289 286 289 293 292 288 288 287 290 289 288 293 295
308 307 307 308 308 308 308 309 308 309 308 308 308 308 307 308 304 303 299 303 305 302 287 287 292 295 298 299 293 302 302 297 292 288 290 288 294 292 291 287 292 287 294 291 288 288 287
308 307 306 307 308 308 308 308 308 308 308 307 307 308 307 306 301 298 301 304 304 299 277 288 291 302 300 295 296 296 303 296 290 289 289 288 290 291 289 288 294 291 295 291 291 290 291
306 306 306 307 308 308 308 308 308 308 307 307 307 307 307 304 303 303 304 303 299 285 276 283 291 291 291 295 295 296 296 299 298 290 292 291 297 295 292 294 295 296 294 293 293 291 284
306 306 307 308 308 308 308 308 308 308 307 307 306 306 305 305 298 305 303 297 284 279 284 283 287 290 291 290 292 293 290 290 288 285 286 290 290 293 292 292 295 294 291 284 283 284 282
306 307 307 308 308 308 308 307 308 307 307 306 306 306 304 305 306 304 300 290 279 282 282 288 289 290 288 291 289 290 290 287 292 291 288 285 283 289 295 293 292 292 290 285 279 282 283
306 306 308 308 308 308 307 308 308 307 306 307 308 305 302 305 305 303 293 283 284 283 286 288 289 287 287 289 290 288 288 290 292 293 286 287 285 294 295 296 296 291 288 291 287 287 284
306 307 307 307 308 307 308 308 308 307 308 307 301 299 298 305 305 299 290 284 286 287 290 291 285 288 285 287 288 288 288 291 291 295 295 291 285 293 294 296 295 293 293 288 289 281 279
306 306 307 307 307 307 307 308 307 307 307 307 300 290 300 305 303 293 285 286 289 291 292 289 287 286 288 287 289 287 287 291 294 294 295 293 290 289 293 291 290 291 290 289 289 286 283
305 306 307 307 307 308 307 308 307 308 307 303 297 287 300 304 288 290 288 289 293 292 294 292 292 290 289 290 289 289 289 291 296 295 291 293 291 286 288 293 294 294 291 289 288 282 284
305 306 306 307 308 308 308 307 307 308 307 301 291 291 302 301 285 287 291 291 292 291 291 292 291 292 292 290 288 291 292 296 297 295 292 293 289 285 287 291 293 292 291 290 289 289 283
305 306 306 308 308 308 308 308 309 308 308 303 294 285 291 293 294 290 289 289 289 294 293 293 292 293 292 290 293 290 291 295 296 296 295 294 289 285 284 285 290 289 290 291 290 288 286
306 306 306 307 308 308 307 307 308 309 309 304 294 288 292 286 289 290 290 290 289 289 294 294 292 292 291 288 290 290 292 293 295 295 294 294 286 286 287 288 290 290 290 290 288 288 287
305 306 306 306 307 307 307 307 307 308 308 300 291 291 293 292 292 289 291 290 289 290 292 291 291 291 293 289 290 289 292 292 291 295 292 293 287 286 286 288 290 288 290 291 290 289 289
305 306 306 307 307 307 307 307 308 309 307 299 298 298 295 291 290 289 290 291 291 293 293 293 294 293 291 291 295 295 296 295 293 292 290 290 289 287 283 285 286 285 285 289 290 290 290
306 306 306 307 307 307 308 307 309 309 306 303 299 298 293 287 290 290 291 293 292 292 292 292 294 294 293 297 296 297 296 295 294 292 292 289 287 287 285 285 280 285 290 289 288 290 291
306 306 306 307 307 307 306 308 309 307 304 301 297 297 294 288 291 291 292 291 293 293 292 292 293 295 297 295 292 289 290 290 290 290 291 292 289 285 285 284 283 284 288 288 287 288 290
305 305 306 307 308 307 308 310 309 305 302 298 294 296 297 293 287 284 290 293 292 291 292 293 296 298 296 293 290 283 282 284 285 287 291 291 291 289 285 280 279 285 289 291 291 285 290
305 306 306 307 306 306 309 310 308 307 302 298 293 294 296 289 287 286 289 290 292 292 291 293 294 295 295 292 287 285 284 286 283 283 285 287 287 285 285 283 285 288 290 291 283 285 290
305 306 306 306 306 307 309 308 308 304 302 298 293 294 295 289 287 288 288 289 292 293 293 293 293 294 294 289 288 287 286 286 285 285 285 285 285 285 284 283 280 290 290 287 290 289 291
305 305 306 306 305 308 308 308 307 304 302 298 294 294 294 292 288 290 290 291 289 290 293 292 292 292 294 291 290 289 286 286 285 284 287 284 288 287 287 287 289 290 291 291 291 291 291
Wind_Speed
19 18 19 20 22 19 20 19 19 20 21 20 21 22 21 25 20 14 11 8 4 4 4 2 2 2 2 3 8 2 5 1 6 4 2 2 6 7 10 7 9 17 22 18 19 18 19
18 20 19 20 21 21 22 22 20 20 21 21 23 23 22 30 12 15 11 8 5 2 3 2 1 6 2 9 2 0 2 5 5 6 5 6 5 4 10 13 13 11 13 19 20 16 17
20 20 21 22 22 21 21 20 22 21 22 22 23 22 21 27 14 12 9 6 5 4 3 3 2 5 4 10 1 2 4 3 5 8 9 8 8 8 2 8 11 13 20 20 20 20 15
20 23 21 22 23 22 22 20 17 21 22 22 23 23 23 17 11 14 8 10 8 5 3 2 3 3 6 1 3 7 6 8 7 7 10 10 9 12 12 8 8 10 12 15 15 21 20
23 23 24 24 24 24 23 19 21 18 21 20 22 22 24 17 8 10 9 6 5 6 5 6 5 3 5 1 4 4 7 7 5 7 7 8 5 9 8 10 7 9 6 18 13 21 16
23 23 24 26 26 24 22 21 19 20 20 22 20 22 23 27 14 12 11 7 7 7 6 6 4 5 4 3 2 2 3 6 6 5 5 7 7 8 7 7 8 4 12 12 17 14 21
25 24 24 24 26 25 23 20 20 20 19 19 19 19 24 24 13 15 11 6 4 2 6 6 6 1 1 2 1 5 4 4 5 4 5 6 5 11 14 12 14 3 6 9 7 13 21
22 23 25 27 27 26 24 23 22 20 18 19 18 15 19 17 9 15 5 3 2 2 4 12 4 4 7 1 4 6 4 5 5 5 1 5 12 12 14 10 10 5 11 4 6 4 14
22 25 26 27 27 27 26 24 22 22 22 20 17 15 15 21 8 9 5 6 2 4 2 2 5 4 3 8 4 5 7 4 4 5 6 6 8 10 9 4 9 7 15 10 6 12 10
26 24 26 27 27 27 26 25 24 22 21 19 17 15 11 17 6 5 4 9 3 2 1 5 6 2 5 3 4 4 4 3 2 4 5 8 7 7 8 5 5 7 16 15 10 2 4
28 27 26 27 27 29 28 26 26 24 21 20 18 16 12 6 2 5 3 8 7 3 3 6 5 3 4 5 3 5 4 3 4 3 2 2 4 3 3 2 7 4 13 8 8 2 6
28 28 28 29 30 29 27 26 25 25 23 21 18 17 11 6 7 2 7 9 5 3 5 5 4 6 4 6 4 3 0 3 3 3 10 4 3 4 4 5 4 1 14 8 4 2 3
28 29 29 31 31 28 28 27 26 27 25 24 20 18 15 8 6 9 9 6 5 3 1 6 7 6 7 6 4 4 2 3 2 3 2 0 3 6 2 1 4 7 5 3 3 1 5
28 29 30 32 29 30 28 28 29 30 30 31 30 35 20 10 9 14 7 5 4 4 6 3 6 7 5 6 3 1 3 3 5 3 2 3 3 1 5 1 3 3 3 3 4 3 4
28 29 30 31 30 30 29 29 30 31 33 38 7 8 7 12 16 10 9 3 3 5 6 10 9 6 4 2 3 2 2 3 4 3 3 2 3 1 2 3 4 2 2 2 7 2 6
28 30 29 29 29 30 30 30 31 29 20 16 10 7 5 15 15 8 3 3 2 3 4 10 5 5 4 5 2 1 2 4 3 3 3 1 2 2 0 3 4 4 2 2 2 3 6
28 30 29 30 30 29 29 28 28 32 12 10 6 5 8 11 7 2 1 1 2 4 3 3 4 5 6 5 3 2 3 2 3 2 2 2 3 2 3 7 6 3 2 4 4 4 4
27 29 29 29 29 28 28 28 28 23 5 8 4 6 4 3 4 2 3 2 3 4 2 3 2 4 4 4 4 3 3 1 4 2 2 1 2 4 4 2 3 2 4 5 2 3 4
28 29 29 28 26 26 26 26 33 14 11 1 4 4 2 2 3 2 3 2 3 3 1 0 1 1 2 4 5 4 2 3 5 3 3 2 3 2 3 2 2 5 5 4 3 3 5
27 28 28 27 26 25 23 24 14 14 14 2 3 4 3 3 2 5 2 3 4 3 2 4 2 2 4 6 7 5 3 4 5 3 7 2 5 5 5 4 4 3 6 7 6 4 4
27 26 27 26 26 23 21 21 10 19 19 3 4 4 1 2 3 7 2 2 8 3 2 3 3 3 4 5 6 5 3 1 2 7 3 3 5 3 7 4 2 6 7 9 7 5 5
25 26 25 25 24 21 17 16 17 15 14 3 3 3 1 4 6 2 1 5 5 3 4 3 7 5 6 5 4 5 3 2 2 4 3 4 3 2 5 8 6 6 6 4 5 3 6
25 24 24 25 22 22 17 16 17 12 3 2 1 1 1 3 5 2 3 4 4 4 6 5 9 10 13 6 7 8 10 8 5 2 3 3 4 1 2 5 4 4 6 5 2 3 2
24 23 24 24 21 19 17 18 16 1 4 2 2 0 1 4 4 1 5 4 4 4 5 3 5 5 3 7 8 8 10 11 11 11 4 4 4 2 1 3 2 4 6 5 5 1 2
23 22 23 21 20 19 21 19 4 11 9 4 1 2 2 6 3 4 6 9 9 10 6 5 7 4 5 1 3 3 2 2 8 8 11 6 2 3 1 1 2 1 0 2 2 2 2
22 22 23 21 18 20 22 6 20 14 15 5 3 2 2 5 5 2 3 3 5 4 4 4 3 1 2 3 2 2 3 1 2 0 1 3 5 1 1 1 1 4 2 0 1 3 5
21 21 20 19 19 22 10 15 12 9 15 6 4 4 2 6 3 4 3 3 1 3 4 1 1 1 2 2 3 2 3 2 0 2 3 3 3 2 1 1 1 2 3 2 4 4 7
19 19 17 15 17 19 14 11 10 11 9 5 2 4 2 5 5 4 3 3 1 1 3 3 3 2 1 2 1 2 1 2 1 0 1 1 0 2 1 2 2 5 3 4 3 3 5
18 16 13 13 15 11 13 11 11 8 4 3 3 2 4 6 5 1 2 4 3 3 1 2 2 2 1 2 1 2 2 2 0 1 1 2 3 1 4 1 2 4 2 1 3 3 4
Wind_Direction
349 350 343 340 336 341 334 337 341 340 335 329 325 327 323 325 298 196 193 206 234 262 229 264 307 148 195 238 254 154 304 324 136 162 235 255 243 260 252 261 251 242 251 254 248 252 257
343 339 341 336 334 335 332 333 334 335 333 334 333 327 327 325 240 191 187 186 174 269 201 251 282 135 217 263 4 201 302 192 204 203 223 226 255 265 281 266 256 271 263 258 247 248 253
339 338 336 333 330 330 326 328 330 330 332 335 335 333 326 329 189 169 160 194 175 173 219 253 267 154 217 248 263 255 289 232 214 227 246 244 255 242 285 254 260 288 265 264 240 231 244
335 331 335 329 325 318 315 314 320 325 328 331 336 330 337 324 222 155 175 175 170 147 183 214 145 163 257 165 270 264 239 236 232 240 247 263 249 260 245 270 276 244 265 241 233 214 231
332 334 334 328 320 319 316 318 320 319 322 327 333 335 334 314 178 157 153 154 129 170 165 148 134 225 257 337 225 254 235 250 242 256 244 242 228 231 231 238 256 232 233 217 239 208 211
330 332 332 325 323 319 319 316 322 323 319 323 324 335 333 321 170 148 132 142 122 132 129 113 104 230 210 214 169 217 219 249 260 252 228 213 216 235 228 241 249 242 212 213 217 202 202
330 333 328 326 323 323 318 317 318 319 318 312 312 333 335 348 148 143 128 121 109 142 216 212 175 224 213 138 158 213 207 210 223 223 230 191 237 239 249 247 248 7 258 220 220 258 181
337 327 325 323 323 326 322 319 318 312 312 304 300 316 326 314 220 150 133 182 162 67 219 215 221 238 267 266 253 200 202 224 216 230 21 241 250 271 274 227 218 220 249 203 92 133 182
329 325 328 326 322 322 322 319 318 314 308 313 312 306 309 326 258 148 166 168 176 234 253 155 190 236 241 192 247 199 203 211 239 243 223 246 282 283 235 225 203 237 208 166 99 93 60
324 328 323 320 320 319 320 315 313 310 311 309 310 293 301 346 150 147 193 205 193 258 105 152 176 219 176 213 241 187 196 284 216 276 263 259 268 259 276 278 178 162 110 98 109 191 123
325 326 324 321 317 324 318 315 311 312 309 307 300 288 277 269 305 201 195 160 167 234 204 130 132 110 173 227 121 195 187 120 247 256 246 62 287 287 312 308 343 76 151 147 185 209 154
329 328 326 320 324 323 318 316 312 308 303 300 292 290 245 273 186 237 141 138 165 158 226 172 141 198 187 213 184 134 161 196 285 264 210 285 264 339 357 310 342 285 122 136 149 153 91
329 327 323 327 324 322 321 319 312 305 304 305 297 272 272 246 192 149 141 182 128 192 123 165 183 171 211 187 151 168 169 196 269 256 57 131 346 351 328 270 183 229 163 135 148 129 68
330 327 329 324 328 325 323 321 316 316 309 297 263 252 241 222 158 147 164 181 161 151 192 174 144 174 212 176 97 62 153 236 200 246 95 330 170 303 337 341 138 160 315 330 117 115 98
329 327 331 330 328 327 327 326 323 324 316 296 136 114 148 164 148 142 175 181 169 177 163 149 135 191 157 104 109 84 70 1 28 358 351 310 42 63 296 354 292 154 73 339 104 80 97
329 330 333 335 332 332 330 331 332 340 342 74 88 90 100 133 140 150 204 107 122 150 129 139 182 234 141 125 134 175 35 23 324 293 257 74 50 49 317 256 227 312 38 119 57 86 85
331 333 336 335 337 334 335 337 340 339 61 49 70 68 64 103 121 106 125 82 98 89 63 205 175 134 118 124 102 115 75 277 250 353 244 314 307 344 331 23 7 356 66 70 98 0 109
331 337 336 339 340 336 338 342 345 349 2 27 38 75 143 142 102 245 116 37 93 111 77 222 111 108 103 117 95 86 68 47 360 292 292 36 42 56 36 18 264 296 11 335 358 102 50
336 338 338 339 341 342 347 355 343 90 43 34 59 76 94 3 121 138 71 81 86 109 245 95 82 46 107 105 106 75 62 9 17 25 4 16 32 81 29 147 151 25 27 33 40 48 30
340 338 339 339 346 348 357 358 40 46 31 45 88 93 59 21 313 147 83 104 113 68 41 65 87 96 113 83 50 120 101 17 1 47 41 337 60 20 50 43 329 43 37 13 11 34 96
343 343 340 345 349 354 2 7 64 4 5 59 30 59 104 136 98 104 5 95 136 95 49 29 65 80 94 98 90 89 58 48 32 7 47 28 72 80 74 45 87 55 38 37 59 34 31
344 342 343 346 350 356 2 2 353 351 346 63 105 138 164 115 91 55 27 131 122 120 4 40 112 83 91 96 62 127 140 44 17 30 45 15 113 34 25 19 53 101 86 104 80 78 87
343 343 343 346 351 351 354 349 345 356 9 71 55 108 252 55 97 30 22 119 125 139 59 49 110 87 72 62 82 76 79 70 57 3 70 38 130 5 43 344 300 123 26 35 77 72 349
343 344 347 348 350 347 346 344 338 41 107 92 55 40 85 96 98 36 339 95 73 22 108 26 29 86 75 125 120 106 83 83 60 47 14 115 88 27 72 299 45 24 356 335 343 23 91
345 347 345 350 348 348 344 336 56 134 115 85 65 274 84 101 78 53 76 103 88 68 56 40 21 39 143 4 100 100 61 105 35 33 31 33 113 99 266 72 111 158 231 339 325 19 1
345 345 349 350 351 352 342 25 127 109 92 86 59 315 33 122 54 325 4 89 103 87 61 57 59 22 358 49 70 67 66 19 59 65 30 48 53 36 132 71 57 70 129 0 311 217 190
344 346 352 352 357 354 50 106 115 78 71 80 57 10 51 95 40 336 43 34 51 80 84 166 342 126 302 53 70 61 92 322 87 19 3 18 23 48 98 316 156 161 150 172 236 73 175
342 350 353 0 1 360 120 111 102 94 71 64 55 4 32 92 48 4 10 12 11 359 133 127 191 116 69 70 69 100 96 87 214 304 317 339 204 158 160 241 232 169 143 225 61 160 178
342 350 354 6 7 10 137 123 93 94 138 120 79 21 28 70 93 108 86 72 12 310 328 50 39 81 101 117 106 127 143 193 230 201 175 220 258 325 232 17 78 181 283 24 219 192 187